Hourly Data Report for May 16, 2012

All times are specified in Local Standard Time (LST). Add 1 hour to adjust for Daylight Saving Time where and when it is observed.

YARMOUTH A
NOVA SCOTIA

43°49'37.000" N
66°05'17.000" W
42.90 m
8206495
71603
YQI

Download Data

Hourly Data (May 2012)
Hourly Data Report for May 16, 2012
Temp Definition
°C
Dew Point Temp Definition
°C
Rel Hum Definition
%
Wind Dir Definition
10's deg

Wind Spd Definition
km/h
Visibility Definition
km
Stn Press Definition
kPa
Hmdx Definition


Wind Chill Definition


Weather Definition


TIME
00:00 Legend Double Dagger 13.2 12.1 93 19 24 10.0 101.68     LegendNANA
01:00 Legend Double Dagger 12.6 11.7 94 18 26 10.0 101.64     LegendNANA
02:00 Legend Double Dagger 12.6 11.5 93 18 24 10.0 101.57     Cloudy
03:00 Legend Double Dagger 12.6 11.7 94 18 26 10.0 101.51     LegendNANA
04:00 Legend Double Dagger 13.4 12.1 92 17 20 10.0 101.47     LegendNANA
05:00 Legend Double Dagger 13.1 12.2 94 17 19 10.0 101.43     Rain Showers
06:00 Legend Double Dagger 13.4 12.5 94 18 21 10.0 101.40     LegendNANA
07:00 Legend Double Dagger 13.7 12.6 93 18 24 10.0 101.39     Rain Showers
08:00 Legend Double Dagger 13.7 12.6 93 17 22 10.0 101.37     Cloudy
09:00 Legend Double Dagger 14.6 13.0 90 18 24 10.0 101.34     LegendNANA
10:00 Legend Double Dagger 13.8 12.9 94 18 23 4.8 101.32     Rain Showers,Fog
11:00 Legend Double Dagger 13.4 12.8 96 19 30 6.4 101.26     Rain Showers,Fog
12:00 Legend Double Dagger 13.7 13.4 98 19 32 6.4 101.20     Rain Showers,Fog
13:00 Legend Double Dagger 13.7 13.4 98 18 30 4.8 101.16     Moderate Rain Showers,Fog
14:00 Legend Double Dagger 13.4 13.1 98 19 30 4.8 101.12     Rain Showers,Fog
15:00 Legend Double Dagger 12.6 12.5 99 19 28 4.8 101.06     Rain Showers,Fog
16:00 Legend Double Dagger 12.8 12.7 99 18 28 4.8 100.99     Rain Showers,Fog
17:00 Legend Double Dagger 12.6 12.6 100 19 30 4.8 100.97     Rain Showers,Fog
18:00 Legend Double Dagger 12.7 12.6 99 19 35 4.8 100.91     Fog
19:00 Legend Double Dagger 12.4 12.3 99 19 27 4.8 100.90     Fog
20:00 Legend Double Dagger 12.2 12.2 100 19 31 4.0 100.87     Rain Showers,Fog
21:00 Legend Double Dagger 11.9 11.9 100 20 30 1.6 100.92     Fog
22:00 Legend Double Dagger 11.9 12.1 101 20 23 1.6 100.91     Drizzle,Fog
23:00 Legend Double Dagger 12.3 12.5 101 21 28 3.2 100.89     Fog

Notes on Data Quality.

Legend

  • E = Estimated
  • M = Missing
  • NA = Not Available
  • ‡ = Partner data that is not subject to review by the National Climate Archives
Date modified: